,,Stat5,,Stat1,,Stat2,,Stat3,,Stat4,,Wind1,,Wind1,
time,status,PA1M_AVG,status,PR1M_SUM,status,RH1M_AVG,status,SR1M_AVG,status,TA1M_AVG,status,W1dAve1m,status,W1sAve1m,
2001-07-12, 00:00:01,VALID,918.691,VALID,0,VALID,95.5484,VALID,-0.0849042,VALID,19.1427,VALID,19,VALID,0.351151,
2001-07-12, 00:01:00,VALID,918.691,VALID,0,VALID,95.6819,VALID,-0.0849042,VALID,19.1432,VALID,19,VALID,0.432904,
2001-07-12, 00:02:00,VALID,918.684,VALID,0,VALID,95.4098,VALID,-0.0509425,VALID,19.1109,VALID,20,VALID,0.406883,
2001-07-12, 00:03:00,VALID,918.682,VALID,0,VALID,95.5077,VALID,-0.0339617,VALID,19.0525,VALID,33,VALID,0.523237,
2001-07-12, 00:04:00,VALID,918.688,VALID,0,VALID,95.9947,VALID,-0.0849042,VALID,19.098,VALID,35,VALID,0.476953,
2001-07-12, 00:05:00,VALID,918.687,VALID,0,VALID,95.762,VALID,-0.101885,VALID,19.0885,VALID,35,VALID,0.417279,
2001-07-12, 00:06:00,VALID,918.704,VALID,0,VALID,95.9184,VALID,-0.0679233,VALID,19.1014,VALID,35,VALID,0.395182,
2001-07-12, 00:07:00,VALID,918.708,VALID,0,VALID,95.6399,VALID,0,VALID,19.1005,VALID,35,VALID,0.298478,
2001-07-12, 00:08:00,VALID,918.712,VALID,0,VALID,95.8714,VALID,0,VALID,19.1102,VALID,35,VALID,0.187099,
2001-07-12, 00:09:00,VALID,918.695,VALID,0,VALID,95.6704,VALID,0.0169808,VALID,19.1069,VALID,35,VALID,0.00721154,
2001-07-12, 00:10:00,VALID,918.673,VALID,0,VALID,95.6056,VALID,0,VALID,19.0876,VALID,35,VALID,0,
2001-07-12, 00:11:00,VALID,918.661,VALID,0,VALID,95.5331,VALID,0.0169808,VALID,19.0908,VALID,35,VALID,0,
2001-07-12, 00:12:00,VALID,918.652,VALID,0,VALID,95.3284,VALID,-0.0339617,VALID,19.0424,VALID,35,VALID,0,
2001-07-12, 00:13:00,VALID,918.657,VALID,0,VALID,95.4861,VALID,-0.101885,VALID,19.0209,VALID,35,VALID,0,
2001-07-12, 00:14:00,VALID,918.679,VALID,0,VALID,95.6692,VALID,-0.0849042,VALID,19.0113,VALID,35,VALID,0,
2001-07-12, 00:15:00,VALID,918.687,VALID,0,VALID,96.4296,VALID,-0.101885,VALID,19.0567,VALID,63,VALID,0.252956,
2001-07-12, 00:16:00,VALID,918.698,VALID,0,VALID,96.1893,VALID,-0.0849042,VALID,19.0858,VALID,83,VALID,0.0584821,
2001-07-12, 00:17:00,VALID,918.696,VALID,0,VALID,96.4525,VALID,-0.0849042,VALID,19.0729,VALID,83,VALID,0.215929,
2001-07-12, 00:18:00,VALID,918.684,VALID,0,VALID,96.9967,VALID,-0.101885,VALID,19.1534,VALID,83,VALID,0.0330529,
2001-07-12, 00:19:00,VALID,918.683,VALID,0,VALID,95.9527,VALID,-0.0849042,VALID,19.1273,VALID,82,VALID,0,
2001-07-12, 00:20:00,VALID,918.685,VALID,0,VALID,96.146,VALID,-0.101885,VALID,19.1084,VALID,73,VALID,0,
2001-07-12, 00:21:00,VALID,918.668,VALID,0,VALID,94.9011,VALID,-0.0849042,VALID,19.0244,VALID,53,VALID,0,
2001-07-12, 00:22:00,VALID,918.652,VALID,0,VALID,95.4988,VALID,-0.101885,VALID,18.9626,VALID,47,VALID,0,
2001-07-12, 00:23:00,VALID,918.64,VALID,0,VALID,96.0519,VALID,-0.0679233,VALID,18.9882,VALID,47,VALID,0,
2001-07-12, 00:24:00,VALID,918.631,VALID,0,VALID,96.3978,VALID,-0.0849042,VALID,19.0371,VALID,47,VALID,0,
2001-07-12, 00:25:00,VALID,918.623,VALID,0,VALID,96.7284,VALID,-0.101885,VALID,19.0793,VALID,47,VALID,0.128906,
2001-07-12, 00:26:00,VALID,918.621,VALID,0,VALID,96.5657,VALID,-0.118866,VALID,19.0992,VALID,39,VALID,0.496962,
2001-07-12, 00:27:00,VALID,918.608,VALID,0,VALID,96.6941,VALID,-0.0679233,VALID,19.0982,VALID,33,VALID,0.579687,
2001-07-12, 00:28:00,VALID,918.603,VALID,0,VALID,97.0196,VALID,0.0169808,VALID,19.1683,VALID,33,VALID,0.652344,
2001-07-12, 00:29:00,VALID,918.593,VALID,0,VALID,96.9865,VALID,0,VALID,19.1939,VALID,33,VALID,0.665963,
2001-07-12, 00:30:00,VALID,918.589,VALID,0,VALID,96.9192,VALID,0.0169808,VALID,19.2135,VALID,39,VALID,0.695513,
2001-07-12, 00:31:00,VALID,918.585,VALID,0,VALID,97.1493,VALID,0.0169808,VALID,19.2714,VALID,40,VALID,0.684961,
2001-07-12, 00:32:00,VALID,918.576,VALID,0,VALID,97.2892,VALID,0.0339617,VALID,19.3531,VALID,40,VALID,0.606618,
2001-07-12, 00:33:00,VALID,918.573,VALID,0,VALID,96.8073,VALID,0.0169808,VALID,19.3621,VALID,40,VALID,0.52504,
2001-07-12, 00:34:00,VALID,918.559,VALID,0,VALID,96.5911,VALID,0.0169808,VALID,19.3551,VALID,40,VALID,0.492188,
2001-07-12, 00:35:00,VALID,918.537,VALID,0,VALID,96.4118,VALID,0.0339617,VALID,19.3519,VALID,40,VALID,0.508213,
2001-07-12, 00:36:00,VALID,918.52,VALID,0,VALID,95.968,VALID,0.0339617,VALID,19.3166,VALID,38,VALID,0.628289,
2001-07-12, 00:37:00,VALID,918.5,VALID,0,VALID,95.3881,VALID,0.0169808,VALID,19.2297,VALID,28,VALID,0.863598,
2001-07-12, 00:38:00,VALID,918.485,VALID,0,VALID,96.2083,VALID,0.0169808,VALID,19.1879,VALID,20,VALID,0.984375,
2001-07-12, 00:39:00,VALID,918.474,VALID,0,VALID,96.9115,VALID,0.0339617,VALID,19.2324,VALID,19,VALID,0.978766,
2001-07-12, 00:40:00,VALID,918.453,VALID,0,VALID,96.9217,VALID,0,VALID,19.2587,VALID,11,VALID,0.888672,
2001-07-12, 00:41:00,VALID,918.441,VALID,0,VALID,97.0743,VALID,0,VALID,19.3042,VALID,14,VALID,0.650641,
2001-07-12, 00:42:00,VALID,918.418,VALID,0,VALID,97.2663,VALID,0,VALID,19.3559,VALID,24,VALID,0.735978,
2001-07-12, 00:43:00,VALID,918.39,VALID,0,VALID,97.3769,VALID,0.0169808,VALID,19.453,VALID,38,VALID,0.652561,
2001-07-12, 00:44:00,VALID,918.373,VALID,0,VALID,97.1531,VALID,0,VALID,19.4853,VALID,39,VALID,0.531867,
2001-07-12, 00:45:00,VALID,918.348,VALID,0,VALID,96.7055,VALID,0.0679233,VALID,19.4813,VALID,46,VALID,0.501234,
2001-07-12, 00:46:00,VALID,918.329,VALID,0,VALID,95.4492,VALID,0,VALID,19.3976,VALID,46,VALID,0.260074,
2001-07-12, 00:47:00,VALID,918.32,VALID,0,VALID,94.9978,VALID,0.0849042,VALID,19.3102,VALID,29,VALID,0.0365287,
2001-07-12, 00:48:00,VALID,918.301,VALID,0,VALID,94.8274,VALID,0.0509425,VALID,19.262,VALID,21,VALID,0.00168919,
2001-07-12, 00:49:00,VALID,918.269,VALID,0,VALID,94.6697,VALID,0.0509425,VALID,19.2163,VALID,36,VALID,0.0486607,
2001-07-12, 00:50:00,VALID,918.227,VALID,0,VALID,95.0817,VALID,0.0509425,VALID,19.1581,VALID,52,VALID,0.2602,
2001-07-12, 00:51:00,VALID,918.217,VALID,0,VALID,96.6559,VALID,0,VALID,19.2555,VALID,51,VALID,0.590345,
2001-07-12, 00:52:00,VALID,918.185,VALID,0,VALID,96.5695,VALID,0,VALID,19.3109,VALID,61,VALID,0.624383,
2001-07-12, 00:53:00,VALID,918.165,VALID,0,VALID,97.1366,VALID,0.0169808,VALID,19.3621,VALID,62,VALID,0.742188,
2001-07-12, 00:54:00,VALID,918.153,VALID,0,VALID,97.1061,VALID,0.0169808,VALID,19.4329,VALID,67,VALID,0.527455,
2001-07-12, 00:55:00,VALID,918.122,VALID,0,VALID,96.4983,VALID,0.0169808,VALID,19.4105,VALID,79,VALID,0.622596,
2001-07-12, 00:56:00,VALID,918.117,VALID,0,VALID,96.7411,VALID,0.0169808,VALID,19.4036,VALID,95,VALID,0.706174,
2001-07-12, 00:57:00,VALID,918.092,VALID,0,VALID,96.7831,VALID,-0.0169808,VALID,19.4339,VALID,93,VALID,0.497852,
2001-07-12, 00:58:00,VALID,918.076,VALID,0,VALID,96.1689,VALID,-0.0849042,VALID,19.409,VALID,97,VALID,0.335503,
2001-07-12, 00:59:00,VALID,918.052,VALID,0,VALID,94.774,VALID,-0.0849042,VALID,19.293,VALID,141,VALID,0.481554,
2001-07-12, 01:00:00,VALID,918.04,VALID,0,VALID,94.6366,VALID,-0.0849042,VALID,19.1668,VALID,149,VALID,0.287543,
2001-07-12, 01:01:00,VALID,918.035,VALID,0,VALID,94.8503,VALID,-0.0849042,VALID,19.0821,VALID,149,VALID,0.268709,
2001-07-12, 01:02:00,VALID,918.024,VALID,0,VALID,94.999,VALID,-0.0679233,VALID,19.0244,VALID,149,VALID,0.228463,
2001-07-12, 01:03:00,VALID,918.018,VALID,0,VALID,95.5738,VALID,-0.0679233,VALID,18.9953,VALID,149,VALID,0.342748,
2001-07-12, 01:04:00,VALID,917.991,VALID,0,VALID,96.3469,VALID,-0.0849042,VALID,19.0187,VALID,149,VALID,0.363867,
2001-07-12, 01:05:00,VALID,917.971,VALID,0,VALID,96.8022,VALID,-0.0509425,VALID,19.0436,VALID,149,VALID,0.350414,
2001-07-12, 01:06:00,VALID,917.952,VALID,0,VALID,97.0959,VALID,-0.0679233,VALID,19.0657,VALID,149,VALID,0.251803,
2001-07-12, 01:07:00,VALID,917.956,VALID,0,VALID,96.9344,VALID,-0.0509425,VALID,19.0696,VALID,149,VALID,0.0272436,
2001-07-12, 01:08:00,VALID,917.96,VALID,0,VALID,96.6038,VALID,-0.0679233,VALID,19.0145,VALID,149,VALID,0,
2001-07-12, 01:09:00,VALID,917.981,VALID,0,VALID,96.3889,VALID,-0.0509425,VALID,18.9437,VALID,149,VALID,0,
2001-07-12, 01:10:00,VALID,917.978,VALID,0,VALID,95.9947,VALID,-0.0849042,VALID,18.8401,VALID,49,VALID,0.247466,
2001-07-12, 01:11:00,VALID,917.994,VALID,0,VALID,96.1651,VALID,-0.0509425,VALID,18.7661,VALID,43,VALID,0.258247,
2001-07-12, 01:12:00,VALID,917.982,VALID,0,VALID,96.5097,VALID,-0.0849042,VALID,18.7464,VALID,43,VALID,0.180288,
2001-07-12, 01:13:00,VALID,917.991,VALID,0,VALID,96.8238,VALID,-0.0679233,VALID,18.7407,VALID,43,VALID,0.207813,
2001-07-12, 01:14:00,VALID,917.984,VALID,0,VALID,97.4342,VALID,-0.0509425,VALID,18.7658,VALID,43,VALID,0.268029,
2001-07-12, 01:15:00,VALID,917.968,VALID,0,VALID,97.9809,VALID,-0.0679233,VALID,18.8731,VALID,43,VALID,0.297676,
2001-07-12, 01:16:00,VALID,917.967,VALID,0,VALID,97.9212,VALID,-0.0509425,VALID,18.9153,VALID,43,VALID,0.232422,
2001-07-12, 01:17:00,VALID,917.98,VALID,0,VALID,97.4927,VALID,-0.0509425,VALID,18.8634,VALID,43,VALID,0.2206,
2001-07-12, 01:18:00,VALID,917.974,VALID,0,VALID,97.0438,VALID,-0.0679233,VALID,18.7698,VALID,43,VALID,0.311472,
2001-07-12, 01:19:00,VALID,917.959,VALID,0,VALID,96.8518,VALID,-0.0849042,VALID,18.6826,VALID,43,VALID,0.364515,
2001-07-12, 01:20:00,VALID,917.933,VALID,0,VALID,97.8309,VALID,-0.0679233,VALID,18.7241,VALID,56,VALID,0.337838,
2001-07-12, 01:21:00,VALID,917.917,VALID,0,VALID,98.0356,VALID,-0.0849042,VALID,18.8212,VALID,91,VALID,0.384713,
2001-07-12, 01:22:00,VALID,917.903,VALID,0,VALID,97.5283,VALID,-0.0679233,VALID,18.7958,VALID,143,VALID,0.475893,
2001-07-12, 01:23:00,VALID,917.896,VALID,0,VALID,97.4151,VALID,-0.101885,VALID,18.7273,VALID,146,VALID,0.381076,
2001-07-12, 01:24:00,VALID,917.882,VALID,0,VALID,97.2523,VALID,-0.0679233,VALID,18.6726,VALID,146,VALID,0.0961538,
2001-07-12, 01:25:00,VALID,917.856,VALID,0,VALID,97.1442,VALID,-0.101885,VALID,18.6247,VALID,146,VALID,0,
2001-07-12, 01:26:00,VALID,917.829,VALID,0,VALID,96.1079,VALID,-0.0509425,VALID,18.4657,VALID,96,VALID,0.184622,
2001-07-12, 01:27:00,VALID,917.802,VALID,0,VALID,95.7544,VALID,-0.0339617,VALID,18.3269,VALID,42,VALID,0.562946,
2001-07-12, 01:28:00,VALID,917.763,VALID,0,VALID,96.53,VALID,0.0679233,VALID,18.3031,VALID,33,VALID,0.605168,
2001-07-12, 01:29:00,VALID,917.744,VALID,0,VALID,96.731,VALID,0.0509425,VALID,18.2614,VALID,16,VALID,0.330983,
2001-07-12, 01:30:00,VALID,917.696,VALID,0,VALID,97.5066,VALID,0.0509425,VALID,18.3034,VALID,15,VALID,0.20625,
2001-07-12, 01:31:00,VALID,917.675,VALID,0,VALID,97.8779,VALID,0.0339617,VALID,18.3712,VALID,15,VALID,0.0579427,
2001-07-12, 01:32:00,VALID,917.638,VALID,0,VALID,98.1297,VALID,0.0169808,VALID,18.4288,VALID,15,VALID,0.0520833,
2001-07-12, 01:33:00,VALID,917.636,VALID,0,VALID,98.337,VALID,0.0169808,VALID,18.5266,VALID,2,VALID,0.153795,
2001-07-12, 01:34:00,VALID,917.628,VALID,0,VALID,98.6155,VALID,0.0509425,VALID,18.6809,VALID,325,VALID,0.25699,
2001-07-12, 01:35:00,VALID,917.615,VALID,0,VALID,98.6346,VALID,0.0169808,VALID,18.7614,VALID,335,VALID,0.179265,
2001-07-12, 01:36:00,VALID,917.603,VALID,0,VALID,97.8818,VALID,0.0169808,VALID,18.5162,VALID,10,VALID,0.0901442,
2001-07-12, 01:37:00,VALID,917.594,VALID,0,VALID,97.8996,VALID,0.0679233,VALID,18.5036,VALID,4,VALID,0.290625,
2001-07-12, 01:38:00,VALID,917.592,VALID,0,VALID,97.8881,VALID,0.0339617,VALID,18.4842,VALID,344,VALID,0.14545,
2001-07-12, 01:39:00,VALID,917.589,VALID,0,VALID,97.9275,VALID,0.0339617,VALID,18.4782,VALID,344,VALID,0.121595,
2001-07-12, 01:40:00,VALID,917.593,VALID,0,VALID,98.0471,VALID,0.0509425,VALID,18.4803,VALID,344,VALID,0.204327,
2001-07-12, 01:41:00,VALID,917.582,VALID,0,VALID,98.4502,VALID,0.0169808,VALID,18.6069,VALID,360,VALID,0.446715,
2001-07-12, 01:42:00,VALID,917.578,VALID,0,VALID,98.5786,VALID,0.0339617,VALID,18.7075,VALID,14,VALID,0.544819,
2001-07-12, 01:43:00,VALID,917.598,VALID,0,VALID,98.6613,VALID,0,VALID,18.7822,VALID,26,VALID,0.912373,
2001-07-12, 01:44:00,VALID,917.58,VALID,0,VALID,98.6524,VALID,0,VALID,18.8173,VALID,29,VALID,0.665148,
2001-07-12, 01:45:00,VALID,917.591,VALID,0,VALID,98.5544,VALID,0.0169808,VALID,18.8106,VALID,8,VALID,0.456731,
2001-07-12, 01:46:00,VALID,917.579,VALID,0,VALID,98.426,VALID,0.0169808,VALID,18.7981,VALID,357,VALID,0.280664,
2001-07-12, 01:47:00,VALID,917.578,VALID,0,VALID,98.2137,VALID,0,VALID,18.7686,VALID,316,VALID,0.408053,
2001-07-12, 01:48:00,VALID,917.582,VALID,0,VALID,98.3942,VALID,0.0509425,VALID,18.8431,VALID,290,VALID,0.60597,
2001-07-12, 01:49:00,VALID,917.568,VALID,0,VALID,97.6211,VALID,0.0339617,VALID,18.7102,VALID,340,VALID,0.287109,
2001-07-12, 01:50:00,VALID,917.543,VALID,0,VALID,97.7279,VALID,0,VALID,18.6593,VALID,335,VALID,0.383635,
2001-07-12, 01:51:00,VALID,917.54,VALID,0,VALID,97.8818,VALID,0,VALID,18.698,VALID,14,VALID,0.288857,
2001-07-12, 01:52:00,VALID,917.53,VALID,0,VALID,97.897,VALID,0.0339617,VALID,18.6844,VALID,15,VALID,0.00472862,
2001-07-12, 01:53:00,VALID,917.534,VALID,0,VALID,98.1272,VALID,0.0339617,VALID,18.7331,VALID,324,VALID,0.282939,
2001-07-12, 01:54:00,VALID,917.534,VALID,0,VALID,98.3891,VALID,0.0339617,VALID,18.8237,VALID,244,VALID,0.510346,
2001-07-12, 01:55:00,VALID,917.526,VALID,0,VALID,98.4858,VALID,0.0169808,VALID,18.8818,VALID,255,VALID,0.298661,
2001-07-12, 01:56:00,VALID,917.494,VALID,0,VALID,98.4451,VALID,0.0169808,VALID,18.8622,VALID,284,VALID,0.27105,
2001-07-12, 01:57:00,VALID,917.474,VALID,0,VALID,98.4883,VALID,0.0169808,VALID,18.8714,VALID,310,VALID,0.370593,
2001-07-12, 01:58:00,VALID,917.458,VALID,0,VALID,98.4464,VALID,0.0339617,VALID,18.8816,VALID,290,VALID,0.0976563,
2001-07-12, 01:59:00,VALID,917.451,VALID,0,VALID,98.3637,VALID,0.0169808,VALID,18.8525,VALID,290,VALID,0,
2001-07-12, 02:00:00,VALID,917.451,VALID,0,VALID,98.3548,VALID,0.0169808,VALID,18.8396,VALID,358,VALID,0.340402,
2001-07-12, 02:01:00,VALID,917.45,VALID,0,VALID,98.0102,VALID,0,VALID,18.7624,VALID,12,VALID,0.162059,
2001-07-12, 02:02:00,VALID,917.459,VALID,0,VALID,97.9835,VALID,0,VALID,18.7042,VALID,354,VALID,0.422447,
2001-07-12, 02:03:00,VALID,917.454,VALID,0,VALID,98.1831,VALID,0.0169808,VALID,18.7231,VALID,353,VALID,0.276953,
2001-07-12, 02:04:00,VALID,917.457,VALID,0,VALID,98.0954,VALID,0.0339617,VALID,18.7197,VALID,332,VALID,0.421224,
2001-07-12, 02:05:00,VALID,917.471,VALID,0,VALID,98.206,VALID,0.0509425,VALID,18.7619,VALID,313,VALID,0.416884,
2001-07-12, 02:06:00,VALID,917.486,VALID,0,VALID,98.1501,VALID,0.0169808,VALID,18.7681,VALID,320,VALID,0.322098,
2001-07-12, 02:07:00,VALID,917.481,VALID,0,VALID,97.9937,VALID,0.0169808,VALID,18.7492,VALID,323,VALID,0.188734,
2001-07-12, 02:08:00,VALID,917.492,VALID,0,VALID,97.9975,VALID,0.0169808,VALID,18.7427,VALID,323,VALID,0.000211149,
2001-07-12, 02:09:00,VALID,917.498,VALID,0,VALID,98.028,VALID,0.0169808,VALID,18.7552,VALID,323,VALID,0.000801282,
2001-07-12, 02:10:00,VALID,917.512,VALID,0,VALID,98.0204,VALID,0.0339617,VALID,18.769,VALID,323,VALID,0,
2001-07-12, 02:11:00,VALID,917.516,VALID,0,VALID,97.7584,VALID,0,VALID,18.7137,VALID,327,VALID,0.0321691,
2001-07-12, 02:12:00,VALID,917.538,VALID,0,VALID,97.6427,VALID,0.0169808,VALID,18.6685,VALID,10,VALID,0.36899,
2001-07-12, 02:13:00,VALID,917.548,VALID,0,VALID,97.5181,VALID,0.0169808,VALID,18.6332,VALID,7,VALID,0.0328526,
2001-07-12, 02:14:00,VALID,917.566,VALID,0,VALID,97.5702,VALID,0.0169808,VALID,18.6039,VALID,7,VALID,0.199119,
2001-07-12, 02:15:00,VALID,917.572,VALID,0,VALID,97.747,VALID,0.0509425,VALID,18.6168,VALID,9,VALID,0.259457,
2001-07-12, 02:16:00,VALID,917.58,VALID,0,VALID,97.8652,VALID,0.0169808,VALID,18.6233,VALID,14,VALID,0.256546,
2001-07-12, 02:17:00,VALID,917.604,VALID,0,VALID,97.9759,VALID,0,VALID,18.6396,VALID,16,VALID,0.0360243,
2001-07-12, 02:18:00,VALID,917.623,VALID,0,VALID,97.8868,VALID,0.0339617,VALID,18.6362,VALID,16,VALID,0,
2001-07-12, 02:19:00,VALID,917.642,VALID,0,VALID,97.8805,VALID,0,VALID,18.6168,VALID,16,VALID,0,
2001-07-12, 02:20:00,VALID,917.644,VALID,0,VALID,97.9428,VALID,0.0169808,VALID,18.6364,VALID,349,VALID,0.117588,
2001-07-12, 02:21:00,VALID,917.636,VALID,0,VALID,98.1857,VALID,0.0679233,VALID,18.704,VALID,280,VALID,0.066907,
2001-07-12, 02:22:00,VALID,917.62,VALID,0,VALID,98.0967,VALID,0.0339617,VALID,18.7236,VALID,280,VALID,0,
2001-07-12, 02:23:00,VALID,917.605,VALID,0,VALID,97.8729,VALID,0.0339617,VALID,18.6782,VALID,280,VALID,0.0421464,
2001-07-12, 02:24:00,VALID,917.575,VALID,0,VALID,97.8423,VALID,0.0339617,VALID,18.659,VALID,280,VALID,0.126028,
2001-07-12, 02:25:00,VALID,917.577,VALID,0,VALID,97.8868,VALID,0.0339617,VALID,18.6622,VALID,280,VALID,0,
2001-07-12, 02:26:00,VALID,917.559,VALID,0,VALID,97.897,VALID,0.0339617,VALID,18.6719,VALID,280,VALID,0,
2001-07-12, 02:27:00,VALID,917.541,VALID,0,VALID,97.9237,VALID,0.0169808,VALID,18.6849,VALID,280,VALID,0,
2001-07-12, 02:28:00,VALID,917.528,VALID,0,VALID,97.8207,VALID,0.0339617,VALID,18.6844,VALID,280,VALID,0,
2001-07-12, 02:29:00,VALID,917.525,VALID,0,VALID,97.6618,VALID,0.0169808,VALID,18.665,VALID,280,VALID,0,
2001-07-12, 02:30:00,VALID,917.515,VALID,0,VALID,97.4672,VALID,0.0169808,VALID,18.6491,VALID,280,VALID,0,
2001-07-12, 02:31:00,VALID,917.5,VALID,0,VALID,97.4431,VALID,0.0169808,VALID,18.6263,VALID,280,VALID,0,
2001-07-12, 02:32:00,VALID,917.508,VALID,0,VALID,97.616,VALID,0.0339617,VALID,18.6426,VALID,280,VALID,0,
2001-07-12, 02:33:00,VALID,917.508,VALID,0,VALID,97.5702,VALID,0.0169808,VALID,18.662,VALID,280,VALID,0,
2001-07-12, 02:34:00,VALID,917.508,VALID,0,VALID,97.3083,VALID,0.0339617,VALID,18.6426,VALID,280,VALID,0,
2001-07-12, 02:35:00,VALID,917.506,VALID,0,VALID,97.0832,VALID,0.0679233,VALID,18.5781,VALID,280,VALID,0,
2001-07-12, 02:36:00,VALID,917.516,VALID,0,VALID,96.8759,VALID,0,VALID,18.5038,VALID,280,VALID,0,
2001-07-12, 02:37:00,VALID,917.522,VALID,0,VALID,96.8085,VALID,0.0509425,VALID,18.442,VALID,280,VALID,0,
2001-07-12, 02:38:00,VALID,917.516,VALID,0,VALID,96.9319,VALID,0.0339617,VALID,18.4101,VALID,280,VALID,0,
2001-07-12, 02:39:00,VALID,917.514,VALID,0,VALID,97.2282,VALID,0,VALID,18.4039,VALID,293,VALID,0.0457589,
2001-07-12, 02:40:00,VALID,917.494,VALID,0,VALID,97.8182,VALID,0.0509425,VALID,18.4609,VALID,30,VALID,0.350329,
2001-07-12, 02:41:00,VALID,917.459,VALID,0,VALID,97.8017,VALID,0.0169808,VALID,18.5264,VALID,41,VALID,0.434544,
2001-07-12, 02:42:00,VALID,917.432,VALID,0,VALID,97.4087,VALID,0.0169808,VALID,18.4842,VALID,40,VALID,0.573117,
2001-07-12, 02:43:00,VALID,917.392,VALID,0,VALID,97.4138,VALID,0.0169808,VALID,18.471,VALID,29,VALID,0.642187,
2001-07-12, 02:44:00,VALID,917.37,VALID,0,VALID,97.4545,VALID,0.0169808,VALID,18.507,VALID,26,VALID,0.529412,
2001-07-12, 02:45:00,VALID,917.359,VALID,0,VALID,97.4469,VALID,0,VALID,18.5229,VALID,28,VALID,0.492989,
2001-07-12, 02:46:00,VALID,917.347,VALID,0,VALID,97.4418,VALID,0,VALID,18.5421,VALID,27,VALID,0.621595,
2001-07-12, 02:47:00,VALID,917.349,VALID,0,VALID,97.2421,VALID,0.0169808,VALID,18.5686,VALID,31,VALID,0.642027,
2001-07-12, 02:48:00,VALID,917.348,VALID,0,VALID,97.0222,VALID,0.0509425,VALID,18.5651,VALID,35,VALID,0.710115,
2001-07-12, 02:49:00,VALID,917.335,VALID,0,VALID,96.9573,VALID,0.0339617,VALID,18.6007,VALID,39,VALID,0.623733,
2001-07-12, 02:50:00,VALID,917.316,VALID,0,VALID,96.9128,VALID,0.0169808,VALID,18.6196,VALID,31,VALID,0.543837,
2001-07-12, 02:51:00,VALID,917.278,VALID,0,VALID,96.689,VALID,0.0509425,VALID,18.6392,VALID,33,VALID,0.373598,
2001-07-12, 02:52:00,VALID,917.254,VALID,0,VALID,96.6229,VALID,0.0339617,VALID,18.6556,VALID,27,VALID,0.399023,
2001-07-12, 02:53:00,VALID,917.231,VALID,0,VALID,96.4283,VALID,0.0169808,VALID,18.6717,VALID,27,VALID,0.360176,
2001-07-12, 02:54:00,VALID,917.209,VALID,0,VALID,96.1536,VALID,0.0169808,VALID,18.6459,VALID,27,VALID,0.128205,
2001-07-12, 02:55:00,VALID,917.221,VALID,0,VALID,96.0901,VALID,0.0339617,VALID,18.63,VALID,27,VALID,0.00173611,
2001-07-12, 02:56:00,VALID,917.22,VALID,0,VALID,96.16,VALID,0.0339617,VALID,18.62,VALID,26,VALID,0.121916,
2001-07-12, 02:57:00,VALID,917.215,VALID,0,VALID,96.174,VALID,0,VALID,18.6034,VALID,4,VALID,0.286184,
2001-07-12, 02:58:00,VALID,917.229,VALID,0,VALID,96.5033,VALID,0.0339617,VALID,18.62,VALID,3,VALID,0.205181,
2001-07-12, 02:59:00,VALID,917.22,VALID,0,VALID,96.6648,VALID,0.0169808,VALID,18.6493,VALID,3,VALID,0.0158361,
2001-07-12, 03:00:00,VALID,917.236,VALID,0,VALID,96.5695,VALID,0.0169808,VALID,18.6362,VALID,3,VALID,0,
2001-07-12, 03:01:00,VALID,917.235,VALID,0,VALID,96.3851,VALID,0.0339617,VALID,18.5905,VALID,3,VALID,0,
2001-07-12, 03:02:00,VALID,917.23,VALID,0,VALID,96.4843,VALID,0.0509425,VALID,18.5815,VALID,357,VALID,0.0952691,
2001-07-12, 03:03:00,VALID,917.214,VALID,0,VALID,96.6508,VALID,0,VALID,18.5845,VALID,344,VALID,0.43129,
2001-07-12, 03:04:00,VALID,917.186,VALID,0,VALID,96.5644,VALID,0.0169808,VALID,18.5621,VALID,324,VALID,0.224507,
2001-07-12, 03:05:00,VALID,917.182,VALID,0,VALID,96.2592,VALID,0,VALID,18.5139,VALID,322,VALID,0,
2001-07-12, 03:06:00,VALID,917.186,VALID,0,VALID,96.0265,VALID,0,VALID,18.472,VALID,337,VALID,0.0908482,
2001-07-12, 03:07:00,VALID,917.193,VALID,0,VALID,95.4772,VALID,0,VALID,18.3587,VALID,14,VALID,0.301683,
2001-07-12, 03:08:00,VALID,917.228,VALID,0,VALID,95.879,VALID,0,VALID,18.3101,VALID,14,VALID,0.201791,
2001-07-12, 03:09:00,VALID,917.233,VALID,0,VALID,96.5835,VALID,0,VALID,18.3267,VALID,14,VALID,0.25,
2001-07-12, 03:10:00,VALID,917.245,VALID,0,VALID,96.6318,VALID,-0.0169808,VALID,18.3398,VALID,14,VALID,0.318793,
2001-07-12, 03:11:00,VALID,917.245,VALID,0,VALID,96.2859,VALID,-0.0169808,VALID,18.2944,VALID,14,VALID,0.357422,
2001-07-12, 03:12:00,VALID,917.25,VALID,0,VALID,96.2465,VALID,0,VALID,18.2402,VALID,20,VALID,0.526786,
2001-07-12, 03:13:00,VALID,917.269,VALID,0,VALID,96.7157,VALID,0.0169808,VALID,18.2199,VALID,22,VALID,0.490954,
2001-07-12, 03:14:00,VALID,917.277,VALID,0,VALID,97.1061,VALID,0.0169808,VALID,18.239,VALID,21,VALID,0.542652,
2001-07-12, 03:15:00,VALID,917.265,VALID,0,VALID,97.3706,VALID,0,VALID,18.2688,VALID,13,VALID,0.676683,
2001-07-12, 03:16:00,VALID,917.269,VALID,0,VALID,97.2917,VALID,0.0169808,VALID,18.2591,VALID,11,VALID,0.571875,
2001-07-12, 03:17:00,VALID,917.255,VALID,0,VALID,97.2854,VALID,0,VALID,18.2266,VALID,15,VALID,0.70795,
2001-07-12, 03:18:00,VALID,917.243,VALID,0,VALID,97.2104,VALID,0.0169808,VALID,18.1777,VALID,1,VALID,0.548077,
2001-07-12, 03:19:00,VALID,917.232,VALID,0,VALID,97.2943,VALID,0,VALID,18.1622,VALID,2,VALID,0.895032,
2001-07-12, 03:20:00,VALID,917.23,VALID,0,VALID,97.9225,VALID,-0.0169808,VALID,18.2397,VALID,7,VALID,1.02284,
2001-07-12, 03:21:00,VALID,917.216,VALID,0,VALID,97.8449,VALID,-0.0849042,VALID,18.2796,VALID,359,VALID,0.857319,
2001-07-12, 03:22:00,VALID,917.211,VALID,0,VALID,97.9517,VALID,-0.0679233,VALID,18.3181,VALID,1,VALID,0.68201,
2001-07-12, 03:23:00,VALID,917.226,VALID,0,VALID,97.7406,VALID,-0.0849042,VALID,18.3412,VALID,15,VALID,0.178385,
2001-07-12, 03:24:00,VALID,917.227,VALID,0,VALID,97.4278,VALID,-0.101885,VALID,18.2826,VALID,15,VALID,0.0560897,
2001-07-12, 03:25:00,VALID,917.243,VALID,0,VALID,97.4253,VALID,-0.0509425,VALID,18.2863,VALID,14,VALID,0.0902344,
2001-07-12, 03:26:00,VALID,917.246,VALID,0,VALID,97.3604,VALID,-0.101885,VALID,18.2598,VALID,15,VALID,0.223958,
2001-07-12, 03:27:00,VALID,917.246,VALID,0,VALID,97.4583,VALID,-0.0679233,VALID,18.2791,VALID,16,VALID,0.475962,
2001-07-12, 03:28:00,VALID,917.227,VALID,0,VALID,97.7063,VALID,0,VALID,18.3271,VALID,19,VALID,0.551649,
2001-07-12, 03:29:00,VALID,917.199,VALID,0,VALID,97.6707,VALID,0.0169808,VALID,18.3234,VALID,18,VALID,0.632196,
2001-07-12, 03:30:00,VALID,917.185,VALID,0,VALID,97.7597,VALID,0,VALID,18.353,VALID,15,VALID,0.548931,
2001-07-12, 03:31:00,VALID,917.165,VALID,0,VALID,97.8284,VALID,0,VALID,18.3456,VALID,14,VALID,0.316201,
2001-07-12, 03:32:00,VALID,917.138,VALID,0,VALID,98.0407,VALID,0,VALID,18.4012,VALID,15,VALID,0.218328,
2001-07-12, 03:33:00,VALID,917.115,VALID,0,VALID,98.1285,VALID,0.0339617,VALID,18.4431,VALID,21,VALID,0.159417,
2001-07-12, 03:34:00,VALID,917.105,VALID,0,VALID,97.9148,VALID,0,VALID,18.4332,VALID,43,VALID,0,